Temperature
23 23 23 22 19 17 20 21 22 23 22 23 23 22 21 21 21 21 21 21 21 21 20 20 19 19 19 19 19 19 19 18 18 18 18 18 18 18 18 18 18 18 18 18 18 18 18 18 17
23 23 22 22 18 20 21 22 22 23 23 23 23 22 21 20 20 20 21 21 21 21 20 20 19 19 19 19 19 19 18 18 18 18 18 18 18 17 17 17 18 18 18 18 18 18 18 18 17
23 22 22 17 19 20 23 23 22 23 23 24 23 22 21 21 20 21 21 21 21 20 20 20 19 19 19 19 19 19 18 18 18 18 18 18 17 17 17 17 17 17 17 17 17 17 17 17 17
22 22 21 18 21 20 22 24 23 22 23 23 22 21 20 20 21 21 21 21 21 20 20 20 20 20 19 19 19 19 18 18 18 18 17 17 17 17 17 17 17 17 17 17 17 17 17 17 17
22 22 18 18 20 21 21 23 24 22 23 23 22 20 20 20 21 21 21 21 20 20 20 20 20 20 19 19 19 18 18 18 18 18 17 17 17 17 17 17 17 17 17 17 17 17 17 17 17
22 19 18 19 20 21 22 24 24 23 22 22 21 19 19 20 20 21 21 20 20 20 20 20 20 20 19 19 19 18 18 18 18 18 18 17 17 17 17 17 17 17 17 17 17 17 17 17 17
21 17 19 20 20 21 24 25 24 22 22 22 22 19 19 19 20 20 20 20 20 20 20 20 20 19 19 19 19 18 18 18 18 17 17 17 17 17 17 17 17 17 17 17 17 17 17 17 17
22 18 20 20 21 22 24 25 25 24 23 23 22 20 19 20 20 20 20 20 20 20 20 20 20 20 19 19 19 18 18 18 17 17 17 17 17 17 17 17 17 17 17 17 17 17 17 17 17
22 18 19 20 22 23 24 25 25 25 24 23 22 23 23 21 20 20 20 20 20 20 20 20 20 20 19 19 19 19 18 17 17 17 17 16 16 16 17 17 17 17 17 17 17 17 17 17 17
21 18 20 21 23 24 24 25 25 24 23 22 22 22 22 20 20 20 20 20 20 20 20 20 20 20 20 20 19 19 18 18 17 17 16 16 16 16 16 17 17 17 17 17 16 16 16 16 16
20 20 21 22 24 24 24 25 25 24 22 23 23 22 21 20 20 20 20 20 21 21 21 21 21 21 20 20 20 19 18 18 17 17 16 16 16 16 16 16 16 16 16 16 16 16 16 16 16
20 21 22 24 25 24 25 25 24 25 25 26 26 25 22 20 20 21 21 21 21 21 21 21 21 21 20 20 19 19 18 18 17 17 16 16 16 16 16 16 16 16 16 16 16 16 16 16 16
21 22 24 25 25 24 25 25 25 25 26 25 24 23 22 21 21 21 21 21 21 21 21 21 20 20 20 20 19 19 18 17 17 17 16 16 16 16 16 16 16 16 16 16 15 15 15 15 15
22 22 23 24 25 25 25 25 24 23 24 23 22 21 21 21 21 21 20 20 21 21 20 20 20 20 19 19 19 18 18 17 17 16 16 16 16 16 16 16 16 15 15 15 15 15 15 15 15
22 22 22 23 23 24 25 24 22 22 22 21 20 20 20 20 20 21 21 21 21 21 20 20 20 19 19 18 18 18 17 17 16 16 16 16 16 16 16 15 15 15 15 15 15 15 15 15 15
21 21 22 22 21 23 24 23 21 21 21 19 19 19 19 19 19 20 20 20 20 20 20 19 19 19 18 18 18 17 17 17 16 16 16 16 16 16 15 15 15 15 15 15 15 14 14 14 14
19 20 21 21 21 21 22 22 19 20 20 19 19 18 18 18 18 18 19 19 19 19 19 19 18 18 18 17 17 17 17 16 16 16 15 15 15 15 15 15 14 14 14 14 14 14 13 13 13
19 20 21 21 20 20 20 19 17 18 18 18 18 17 17 17 17 18 18 18 18 18 18 18 17 17 17 17 17 16 16 16 16 15 15 15 15 14 14 14 14 13 13 13 13 12 12 12 12
20 20 19 19 20 20 19 17 16 16 16 16 16 16 16 16 16 16 17 17 17 17 17 17 17 16 16 16 16 16 16 15 15 15 14 14 14 13 13 13 13 12 12 12 12 11 11 11 10
19 19 19 19 20 20 18 17 16 16 16 16 15 15 15 14 14 15 16 16 16 16 16 16 16 15 15 15 15 15 15 15 14 14 14 13 13 12 12 12 11 11 11 10 10 9 9 9 8
18 18 19 19 19 19 18 17 16 16 16 15 15 15 14 14 14 14 14 15 15 15 15 15 15 15 14 14 14 14 14 14 13 13 12 12 12 11 11 10 10 9 9 8 8 8 7 7 7
18 18 18 19 18 17 18 17 16 15 15 15 15 14 14 14 13 13 13 14 14 14 14 14 14 14 14 13 13 13 13 13 13 12 12 11 11 10 10 9 8 8 7 7 6 6 6 5 5
18 19 19 19 18 16 17 16 15 15 15 15 15 15 14 14 13 13 13 13 13 13 13 14 13 13 13 13 13 13 13 12 12 11 10 10 9 9 8 7 7 6 6 5 5 5 5 4 4
19 19 17 15 15 16 16 15 15 15 16 16 15 15 14 14 13 13 13 13 13 13 13 13 13 13 13 13 13 13 12 12 11 10 10 9 8 7 7 6 5 5 5 5 4 4 4 3 3
20 17 16 16 15 15 16 15 15 15 16 16 16 15 14 13 13 12 12 12 12 12 12 12 12 13 12 12 12 12 12 11 11 10 9 8 7 6 6 5 5 4 4 4 4 3 3 3 2
17 17 16 16 16 16 17 15 15 15 16 17 16 15 14 13 12 12 12 12 12 12 12 12 12 12 12 12 12 12 11 10 9 8 8 7 6 5 5 5 4 4 4 3 3 3 2 2 2
17 16 17 16 16 16 15 15 15 14 14 15 15 14 13 12 12 12 11 11 11 11 11 11 11 11 11 11 11 10 9 8 7 7 6 5 5 5 4 4 4 3 3 3 3 2 2 2 1
18 16 14 14 15 15 16 16 15 15 14 14 14 14 13 11 11 11 11 11 11 11 11 11 10 10 10 9 8 8 7 6 6 5 5 4 4 4 4 3 3 3 3 2 2 2 1 1 1
17 16 15 13 14 15 15 16 15 15 14 14 14 14 12 11 11 11 10 10 11 10 10 10 9 9 8 8 7 6 6 5 5 5 4 4 4 3 3 3 3 3 2 2 2 1 1 1 1
18 17 14 15 15 13 14 15 16 13 13 14 14 13 12 11 11 11 10 10 10 10 10 9 8 8 7 6 6 5 5 4 4 4 4 3 3 3 3 3 3 3 2 2 2 1 1 0 -0
Wind_Speed
0 4 4 4 5 5 3 5 3 2 3 3 6 6 6 4 3 2 1 5 9 10 11 10 11 12 14 15 15 15 15 15 14 13 13 12 11 11 10 10 9 8 7 6 5 4 4 4 5
1 3 4 5 5 1 5 5 3 3 5 7 6 5 4 2 2 3 3 5 9 10 10 10 11 12 13 14 14 14 14 13 13 12 11 10 9 8 8 7 7 7 6 5 4 3 3 4 4
2 4 5 5 4 5 4 3 3 5 6 4 5 4 4 3 4 4 4 9 9 9 9 10 11 12 12 13 13 13 13 12 11 10 9 8 7 6 5 5 5 4 4 3 3 2 2 3 4
4 5 5 4 4 6 6 3 6 8 3 3 5 5 3 2 4 6 10 11 11 8 9 10 12 12 13 13 12 12 11 11 10 9 8 7 6 5 4 3 3 2 2 1 1 1 1 2 4
4 5 4 2 6 6 6 5 8 7 6 4 5 6 2 3 8 12 12 11 10 8 8 10 12 12 13 13 12 12 11 9 8 8 7 6 6 4 3 2 1 1 1 1 1 1 2 3 4
5 5 4 2 6 7 6 7 9 7 5 6 6 6 2 4 9 11 10 9 8 8 8 10 12 12 13 13 13 12 11 9 8 8 7 6 5 3 2 1 1 1 1 1 1 2 3 4 5
5 5 4 4 5 6 4 6 11 9 8 8 8 7 4 5 7 10 9 9 8 7 7 7 9 11 12 12 12 12 11 10 8 7 6 5 4 2 1 1 1 0 0 0 1 2 3 4 5
5 5 2 3 4 6 3 2 6 10 7 7 7 9 8 8 10 10 10 8 8 6 5 5 6 8 9 11 12 12 11 10 8 7 6 5 3 2 2 1 1 1 1 1 1 2 3 4 5
4 4 2 5 4 5 3 1 3 6 8 5 4 5 7 17 15 12 9 7 7 7 5 5 5 6 7 8 10 10 9 8 7 6 5 4 2 1 1 1 2 2 2 3 3 4 5 6 6
4 4 7 6 5 4 5 4 7 7 7 4 4 7 16 18 16 14 12 11 10 9 8 7 7 7 7 7 7 7 6 6 5 4 3 2 1 1 2 3 3 3 4 4 5 6 7 7 7
6 7 5 6 6 5 4 4 7 11 7 9 12 18 22 19 15 13 12 11 10 10 9 8 7 7 7 5 6 5 5 4 4 4 3 2 1 1 2 2 4 5 5 5 6 7 7 7 6
5 6 5 6 4 3 4 4 6 9 10 10 17 25 25 22 19 16 14 12 10 9 8 6 6 4 4 4 4 4 4 4 3 3 3 3 2 2 1 1 2 3 4 4 5 5 6 7 7
5 5 5 7 10 6 4 5 5 5 2 13 18 22 24 22 17 13 11 10 9 8 6 4 4 4 3 3 2 3 3 3 2 1 1 3 3 2 1 1 2 2 3 3 3 4 4 5 6
3 5 7 8 6 2 2 1 3 2 8 16 21 21 21 20 18 14 12 11 9 7 4 2 3 3 3 3 2 2 2 3 4 4 3 1 1 1 1 1 2 2 2 2 2 2 2 3 3
3 5 7 5 6 5 2 3 1 2 11 15 18 19 18 16 16 16 15 12 9 5 3 3 3 4 4 4 4 5 6 7 7 7 7 6 5 5 5 3 3 4 5 5 5 4 4 3 3
2 3 4 7 6 7 5 2 2 3 12 14 16 17 16 14 14 11 10 7 5 5 4 4 5 6 7 7 7 7 9 10 9 10 11 11 10 9 8 5 4 6 6 5 3 3 3 4 4
5 1 2 7 5 5 5 3 3 2 10 14 15 16 15 12 10 8 7 7 6 6 6 6 7 8 9 9 9 10 11 10 10 11 11 12 12 11 10 6 6 7 6 5 4 4 3 3 4
4 2 3 6 6 7 6 4 3 1 5 10 12 13 14 13 10 8 8 8 8 7 7 8 8 8 9 9 8 8 9 8 11 12 12 12 12 11 10 7 7 7 5 5 4 4 3 2 3
4 3 6 7 5 3 3 3 3 2 4 5 6 9 11 10 8 9 8 9 8 8 8 7 8 6 6 5 5 6 5 5 7 9 13 13 12 12 10 6 6 6 5 4 4 2 2 3 3
4 4 7 8 2 2 0 2 2 3 4 5 6 7 8 8 9 8 8 8 8 8 9 9 8 7 6 5 5 5 6 6 6 7 12 13 13 11 9 7 4 4 4 4 4 3 2 2 3
5 6 7 8 5 2 2 2 1 1 3 5 6 7 8 10 10 9 9 9 9 9 9 9 10 10 9 8 7 7 5 5 5 6 5 8 10 10 9 7 5 4 3 3 3 2 2 2 2
7 9 9 7 3 5 3 4 5 3 4 6 8 9 11 11 10 9 10 10 10 10 10 11 11 11 9 8 9 8 6 4 3 3 3 5 9 9 8 7 6 4 3 3 3 2 2 1 2
10 7 6 6 5 3 2 5 6 4 8 12 12 12 12 12 12 11 11 11 11 10 10 10 11 11 10 9 9 10 8 5 3 3 5 4 5 7 7 7 6 4 3 3 4 3 3 1 2
7 4 6 4 4 3 8 8 7 9 13 13 16 15 14 14 13 13 12 12 11 10 9 10 11 10 9 9 9 9 8 6 5 4 4 3 3 3 6 6 5 4 3 3 3 2 3 3 2
5 5 4 5 3 7 5 5 10 12 12 15 19 17 14 15 15 14 13 12 11 10 9 9 10 9 7 8 8 7 7 6 5 3 2 2 2 2 4 4 3 2 2 2 2 2 2 3 3
8 10 8 6 7 8 4 8 9 7 7 9 13 16 16 15 14 14 12 11 10 9 8 8 8 7 6 7 6 6 5 4 3 2 1 1 1 2 3 4 3 3 2 2 2 1 1 2 4
8 8 9 7 4 5 7 8 8 3 4 12 17 17 17 16 15 14 11 10 10 9 7 7 7 6 5 5 5 4 3 3 2 2 1 2 2 2 4 4 3 2 1 0 0 1 3 4 5
8 9 7 7 7 7 7 6 6 7 10 14 19 20 18 16 15 14 11 9 8 7 7 6 5 5 3 3 2 2 1 1 1 1 3 3 4 3 4 4 3 3 3 3 3 3 4 5 6
5 6 6 6 6 7 7 9 8 12 15 19 20 18 18 18 17 14 11 9 9 7 6 5 4 3 2 1 1 1 1 1 2 2 3 3 3 4 5 5 5 5 6 5 5 6 6 7 9
5 8 9 6 7 6 5 9 6 9 12 15 16 17 18 19 17 15 13 11 9 8 6 5 3 3 2 2 1 1 2 2 2 3 4 4 5 5 5 5 6 7 8 7 7 8 8 8 11
Wind_Direction
345 112 109 76 54 45 274 256 229 197 133 130 126 129 135 140 174 204 42 115 122 124 129 144 154 153 142 136 133 132 130 129 127 123 122 121 121 122 127 132 135 136 137 135 130 115 93 75 66
72 104 67 65 88 17 277 248 234 184 143 120 104 104 97 90 73 109 114 119 121 120 124 141 151 150 142 137 135 135 134 133 133 132 131 130 128 127 130 134 138 142 142 141 136 117 81 52 38
69 65 86 78 128 192 239 231 162 125 128 111 105 80 106 146 139 146 138 128 115 113 125 145 149 146 141 138 136 137 138 138 137 138 138 137 133 129 129 136 141 144 145 144 141 118 71 35 17
84 52 57 75 231 227 222 195 135 134 122 85 112 99 79 69 148 140 134 132 123 121 133 148 147 143 142 141 140 141 143 143 142 141 140 139 135 134 136 146 154 162 177 185 172 113 57 24 8
64 80 64 357 264 255 231 209 157 149 148 129 126 120 80 27 110 126 134 133 129 126 134 147 145 142 142 144 146 147 147 147 145 142 139 137 135 136 143 165 185 233 281 300 328 35 36 26 21
61 73 94 253 268 273 256 192 159 148 139 138 131 121 102 118 127 136 131 123 123 127 131 144 146 144 144 147 148 150 152 152 150 146 143 142 141 143 146 169 227 255 295 325 351 21 34 31 21
112 111 164 227 275 289 270 162 154 149 152 171 149 123 132 161 147 129 115 112 115 123 124 129 143 146 148 149 150 153 156 156 156 155 154 155 158 170 201 232 244 245 254 359 13 23 23 22 17
129 111 146 249 259 286 297 149 150 143 168 152 148 151 170 178 142 118 107 108 120 119 116 126 135 143 147 152 157 159 161 162 164 169 173 179 191 214 241 252 281 324 336 338 354 3 3 7 10
101 86 209 230 229 281 301 113 124 134 128 148 177 174 159 144 136 125 118 122 137 141 144 144 143 150 152 156 163 164 167 170 171 180 192 187 188 242 304 292 299 310 320 328 336 341 345 356 5
111 156 225 222 217 258 282 202 162 129 140 152 101 106 128 142 147 150 154 158 161 167 176 173 171 168 166 167 159 158 159 163 167 178 190 182 195 264 311 314 314 318 331 337 340 342 349 358 0
169 198 238 253 241 247 250 202 162 142 183 196 168 149 148 154 160 165 169 168 173 181 183 182 182 172 168 162 154 152 151 154 167 182 196 199 215 284 317 334 344 354 359 355 346 351 355 357 359
188 240 238 269 278 293 233 180 159 177 209 184 161 153 156 164 172 176 176 177 180 189 189 183 180 163 167 156 153 158 156 158 167 190 205 200 209 237 267 322 340 353 353 347 344 346 354 3 6
216 265 271 266 292 269 229 196 181 217 182 130 142 154 163 170 176 176 175 176 185 193 187 186 158 154 158 148 152 155 165 155 155 170 232 221 218 226 243 333 360 1 6 4 358 -0 7 12 12
251 259 289 294 306 296 179 170 121 248 133 138 151 165 171 174 174 170 173 183 191 188 176 150 122 135 128 128 126 111 113 103 87 66 38 74 193 168 118 74 47 37 50 61 63 53 52 40 25
295 304 326 329 339 340 46 44 51 191 140 148 162 171 174 175 175 179 180 181 180 163 132 95 111 96 99 98 92 85 83 85 77 68 63 72 89 101 100 87 68 62 76 82 78 69 66 51 27
18 30 327 306 350 358 56 322 312 159 152 161 170 176 178 178 179 178 171 159 139 115 93 68 85 86 87 89 86 83 82 83 78 73 69 71 80 90 89 80 66 64 70 70 73 54 56 40 16
27 35 273 307 2 23 53 280 286 205 168 171 177 179 178 174 168 160 145 128 108 98 90 80 82 89 93 92 89 86 82 78 74 70 67 68 72 79 82 73 62 59 57 45 48 47 47 29 358
237 245 275 284 313 4 359 306 329 351 180 180 180 178 177 173 161 132 116 106 94 88 88 89 88 94 100 97 92 85 74 68 65 62 60 62 65 68 72 69 60 61 59 46 41 47 42 24 342
189 221 267 269 287 351 338 343 357 60 110 162 185 182 174 156 124 110 101 98 92 82 84 83 90 89 96 95 93 88 77 65 60 59 58 60 63 65 66 67 59 57 61 51 39 30 17 5 351
183 244 275 292 301 171 173 19 43 86 139 167 178 182 169 147 134 120 103 91 90 90 85 80 76 70 64 74 82 89 93 77 68 57 53 53 56 57 63 62 56 49 53 42 31 31 10 347 13
212 214 242 260 320 348 149 327 324 59 114 135 151 161 163 164 155 136 114 101 97 90 88 87 77 71 66 74 86 88 75 65 47 40 38 37 50 55 59 56 52 42 43 34 14 20 15 317 310
246 228 221 245 264 267 177 253 258 190 172 180 172 167 167 164 150 135 122 111 103 97 92 88 83 79 74 78 88 89 90 85 60 45 39 32 41 46 50 47 43 36 26 10 346 12 342 308 305
218 232 216 233 221 253 240 201 266 185 210 209 191 179 169 158 149 138 129 119 109 103 98 93 90 83 79 82 90 94 92 93 85 60 48 34 25 30 32 35 29 19 7 355 347 347 349 339 308
208 74 51 54 92 244 233 191 237 207 211 200 191 183 168 153 144 134 127 121 113 105 99 96 93 84 80 84 86 97 104 104 92 65 47 25 5 5 14 17 15 6 358 351 353 4 18 16 347
144 111 6 337 353 245 236 189 236 228 218 197 186 177 164 152 145 140 138 131 121 111 101 95 96 92 88 90 89 94 102 101 98 90 63 35 7 345 341 356 352 352 355 21 45 50 41 22 350
186 158 175 216 237 269 271 223 248 264 237 189 171 167 162 154 147 143 140 134 126 117 108 106 106 104 96 93 91 91 97 101 98 84 66 15 317 293 309 334 345 356 17 53 64 48 354 345 328
168 190 188 177 228 256 271 277 296 316 185 170 166 168 168 157 148 143 138 131 128 124 121 123 119 109 100 99 99 93 91 90 76 42 9 334 318 308 332 332 333 329 331 338 347 306 305 313 310
169 157 119 147 183 244 264 254 245 224 193 177 176 177 168 154 146 143 141 135 129 125 121 115 115 118 118 120 121 107 77 56 37 13 346 328 317 313 316 309 297 283 272 263 266 277 286 299 302
140 142 152 153 176 192 248 260 228 212 193 187 185 176 163 155 152 149 144 137 129 122 120 120 121 119 133 147 105 72 346 338 343 330 309 302 295 296 293 283 275 269 266 262 259 268 281 292 301
190 183 157 173 224 201 208 256 264 228 198 183 174 165 158 155 153 150 146 141 139 137 137 143 154 171 196 218 235 281 300 310 314 305 297 292 288 287 283 276 274 272 269 264 260 270 280 290 299
Height
1515 1515 1515 1517 1520 1532 1529 1520 1513 1510 1510 1511 1513 1515 1517 1519 1523 1527 1522 1522 1525 1528 1530 1532 1533 1535 1537 1538 1539 1540 1542 1542 1543 1544 1545 1546 1548 1549 1550 1551 1552 1553 1554 1555 1555 1556 1556 1556 1556
1514 1514 1516 1516 1527 1537 1529 1515 1512 1509 1509 1510 1513 1515 1517 1518 1519 1520 1520 1523 1526 1529 1531 1532 1534 1536 1538 1539 1540 1541 1543 1544 1545 1546 1547 1548 1549 1550 1551 1552 1553 1554 1555 1555 1555 1556 1556 1556 1556
1512 1513 1515 1519 1528 1531 1519 1509 1508 1508 1509 1510 1513 1516 1517 1518 1519 1520 1522 1524 1527 1530 1532 1533 1534 1536 1538 1540 1541 1542 1544 1545 1546 1547 1548 1549 1550 1551 1552 1553 1554 1554 1555 1555 1555 1555 1556 1556 1556
1512 1514 1515 1523 1523 1519 1512 1506 1506 1508 1510 1511 1513 1516 1518 1519 1520 1521 1523 1525 1528 1530 1532 1533 1535 1537 1539 1540 1542 1543 1544 1545 1547 1548 1548 1549 1550 1551 1552 1553 1554 1554 1554 1555 1555 1555 1555 1555 1555
1511 1512 1520 1528 1521 1511 1506 1504 1506 1508 1509 1511 1513 1515 1518 1519 1520 1522 1524 1526 1529 1531 1532 1534 1536 1538 1539 1541 1542 1544 1545 1546 1547 1548 1549 1550 1551 1551 1552 1553 1553 1554 1554 1555 1555 1555 1555 1555 1555
1511 1513 1527 1529 1519 1508 1502 1500 1503 1506 1509 1511 1512 1514 1517 1519 1521 1523 1525 1527 1530 1531 1533 1535 1537 1538 1540 1541 1543 1544 1545 1546 1547 1548 1549 1550 1551 1552 1553 1553 1553 1554 1554 1554 1554 1554 1554 1554 1554
1510 1516 1523 1521 1517 1509 1499 1497 1500 1503 1507 1509 1510 1513 1516 1519 1522 1524 1526 1528 1530 1532 1533 1535 1537 1538 1540 1541 1543 1544 1545 1546 1547 1548 1549 1550 1551 1552 1553 1553 1553 1554 1554 1554 1554 1554 1554 1554 1553
1508 1513 1517 1519 1515 1507 1498 1497 1497 1501 1506 1509 1510 1510 1513 1517 1521 1524 1526 1529 1531 1532 1534 1535 1537 1538 1539 1540 1542 1543 1544 1545 1546 1548 1549 1550 1551 1552 1552 1553 1553 1553 1553 1553 1553 1553 1553 1553 1553
1507 1516 1521 1514 1509 1503 1497 1496 1498 1501 1504 1508 1509 1509 1510 1515 1519 1523 1526 1528 1530 1531 1533 1535 1536 1537 1539 1540 1541 1542 1543 1544 1546 1547 1548 1549 1550 1551 1552 1552 1552 1552 1552 1552 1552 1552 1552 1552 1552
1506 1517 1511 1503 1500 1498 1495 1495 1496 1500 1504 1506 1507 1508 1511 1514 1518 1521 1524 1526 1528 1530 1532 1533 1534 1536 1537 1539 1541 1542 1543 1544 1545 1547 1548 1549 1550 1551 1551 1552 1552 1552 1552 1552 1551 1551 1551 1552 1552
1503 1507 1501 1497 1496 1495 1493 1492 1494 1497 1502 1500 1500 1504 1509 1513 1517 1520 1523 1525 1527 1528 1529 1531 1533 1535 1537 1538 1540 1541 1542 1544 1545 1546 1547 1548 1549 1550 1551 1551 1551 1551 1551 1551 1551 1551 1551 1551 1551
1502 1499 1497 1495 1493 1492 1491 1490 1493 1494 1493 1494 1497 1500 1505 1510 1514 1517 1520 1523 1526 1527 1529 1531 1532 1534 1536 1538 1540 1541 1542 1544 1545 1546 1547 1548 1549 1550 1550 1550 1551 1550 1550 1550 1550 1550 1550 1549 1549
1499 1497 1494 1492 1490 1489 1488 1489 1490 1491 1493 1494 1497 1501 1503 1507 1511 1516 1520 1523 1526 1527 1529 1530 1532 1534 1536 1538 1539 1541 1542 1543 1545 1546 1547 1547 1548 1549 1549 1549 1549 1549 1549 1549 1549 1548 1548 1547 1547
1496 1495 1493 1490 1488 1487 1488 1489 1491 1491 1492 1493 1496 1499 1502 1505 1509 1513 1518 1521 1525 1527 1529 1531 1532 1534 1535 1537 1539 1540 1542 1543 1543 1544 1545 1546 1547 1547 1547 1547 1547 1547 1546 1546 1546 1545 1545 1544 1544
1495 1495 1492 1489 1488 1487 1487 1492 1493 1492 1492 1494 1496 1499 1502 1504 1508 1511 1515 1520 1524 1527 1529 1530 1532 1533 1534 1536 1537 1539 1540 1541 1542 1543 1544 1544 1545 1545 1544 1544 1544 1544 1543 1543 1542 1541 1541 1540 1540
1494 1498 1501 1493 1489 1488 1491 1499 1494 1493 1493 1494 1495 1498 1501 1503 1507 1511 1516 1520 1523 1526 1528 1529 1530 1532 1533 1535 1536 1537 1538 1539 1540 1541 1542 1542 1542 1542 1542 1541 1541 1540 1540 1539 1538 1537 1536 1535 1534
1505 1507 1503 1497 1491 1490 1493 1497 1494 1493 1492 1493 1494 1496 1499 1503 1507 1511 1515 1518 1522 1524 1526 1528 1529 1531 1532 1533 1534 1535 1536 1537 1538 1539 1539 1540 1540 1539 1539 1539 1538 1537 1536 1535 1533 1532 1531 1529 1528
1509 1506 1504 1502 1493 1492 1495 1496 1494 1493 1493 1493 1493 1495 1498 1501 1505 1509 1513 1516 1520 1522 1525 1526 1528 1529 1531 1532 1533 1534 1535 1535 1536 1537 1537 1537 1537 1537 1536 1535 1534 1533 1532 1530 1529 1527 1525 1523 1521
1500 1503 1506 1502 1493 1495 1497 1499 1497 1495 1495 1497 1498 1498 1499 1501 1504 1507 1511 1514 1518 1520 1523 1525 1527 1529 1530 1532 1533 1533 1534 1534 1534 1535 1535 1535 1534 1533 1533 1532 1530 1529 1527 1526 1524 1522 1520 1517 1515
1500 1503 1505 1499 1492 1494 1498 1500 1498 1496 1497 1498 1500 1501 1503 1504 1505 1507 1510 1513 1516 1519 1522 1524 1527 1528 1530 1532 1533 1533 1533 1533 1533 1533 1532 1532 1531 1530 1529 1528 1526 1524 1523 1521 1519 1517 1514 1512 1510
1500 1503 1501 1500 1495 1494 1498 1502 1500 1498 1497 1498 1500 1501 1503 1505 1506 1508 1510 1512 1515 1518 1520 1523 1525 1528 1530 1531 1532 1532 1532 1532 1531 1530 1530 1529 1528 1527 1525 1524 1522 1520 1518 1516 1514 1512 1510 1508 1506
1501 1493 1494 1496 1503 1508 1500 1514 1503 1498 1497 1497 1498 1500 1501 1504 1506 1508 1510 1512 1515 1517 1520 1523 1525 1527 1529 1530 1531 1531 1530 1530 1529 1529 1527 1526 1525 1523 1521 1520 1518 1516 1514 1512 1510 1508 1506 1504 1502
1489 1484 1489 1492 1499 1506 1504 1510 1508 1499 1497 1493 1494 1496 1499 1502 1505 1508 1510 1512 1514 1517 1520 1522 1525 1527 1528 1529 1529 1529 1529 1528 1527 1526 1524 1523 1521 1519 1517 1516 1514 1513 1511 1509 1507 1505 1503 1500 1498
1478 1484 1492 1499 1506 1513 1502 1509 1507 1495 1486 1484 1487 1492 1496 1500 1504 1507 1510 1512 1515 1518 1521 1523 1525 1526 1528 1528 1528 1527 1527 1526 1525 1523 1521 1519 1517 1516 1514 1512 1511 1509 1507 1505 1503 1502 1499 1497 1495
1480 1495 1513 1512 1520 1513 1494 1501 1496 1478 1472 1473 1478 1487 1493 1497 1501 1505 1508 1512 1515 1519 1521 1524 1525 1526 1527 1527 1527 1526 1525 1523 1522 1520 1518 1516 1514 1513 1511 1510 1508 1507 1505 1502 1500 1498 1496 1494 1491
1480 1489 1510 1516 1516 1505 1492 1498 1484 1472 1470 1472 1478 1484 1490 1495 1499 1504 1509 1512 1516 1519 1522 1524 1526 1527 1527 1526 1525 1524 1522 1520 1518 1517 1515 1513 1512 1510 1509 1508 1506 1504 1502 1500 1498 1495 1493 1490 1487
1478 1485 1481 1497 1500 1506 1500 1489 1477 1469 1468 1469 1475 1482 1487 1492 1498 1504 1509 1513 1516 1519 1523 1525 1526 1526 1526 1525 1523 1521 1519 1518 1516 1514 1513 1512 1510 1509 1507 1506 1504 1502 1500 1498 1495 1492 1490 1487 1484
1463 1471 1489 1497 1506 1509 1497 1489 1482 1471 1469 1469 1472 1477 1484 1491 1497 1503 1508 1512 1516 1519 1521 1524 1525 1525 1524 1523 1521 1519 1518 1516 1514 1512 1511 1510 1509 1507 1506 1504 1502 1500 1497 1495 1492 1489 1486 1483 1480
1466 1472 1477 1489 1492 1499 1500 1489 1464 1460 1460 1463 1467 1474 1482 1488 1495 1501 1507 1511 1514 1518 1521 1522 1523 1523 1522 1521 1519 1518 1516 1515 1513 1511 1510 1508 1507 1506 1504 1502 1500 1497 1495 1492 1489 1486 1482 1479 1475
1456 1461 1473 1483 1485 1488 1490 1482 1453 1454 1454 1459 1466 1473 1479 1485 1492 1498 1504 1509 1513 1516 1519 1521 1521 1521 1520 1519 1518 1516 1514 1513 1511 1509 1508 1507 1506 1504 1501 1499 1497 1495 1492 1489 1485 1481 1478 1473 1469